{"data":{"norad_id":51141,"intl_designator":"2022-005AP","name":"STARLINK-3179","alt_names":[],"object_type":"PAYLOAD","status":"ACTIVE","operator":null,"country":"US","launch_date":"2022-01-19","launch_site_code":"AFETR","launch_vehicle":null,"mission":null,"orbit_class":"UNKNOWN","rcs_meters":null,"size_class":null,"mass_kg":null,"dimensions":null,"purposes":["comms"],"wikipedia_slug":null,"has_3d_model":false,"image_url":null,"decayed_at":null,"tle_current":{"epoch":"2026-09-20T03:32:45.818592Z","epoch_age_seconds":80397,"freshness":"FRESH","line1":"1 51141U 22005AP  26263.14775253  .00001336  00000+0  50692-4 0  9992","line2":"2 51141  53.1590 131.1040 0001194  88.0649 272.0490 15.34387245258301","mean_motion":15.34387245,"eccentricity":0.0001194,"inclination_deg":53.159,"raan_deg":131.104,"arg_perigee_deg":88.0649,"mean_anomaly_deg":272.049,"bstar":5.0692e-5,"rev_number":25830,"period_min":93.848538215658,"perigee_km":461.92435016649,"apogee_km":463.55795186895,"semimajor_km":6840.8781510177,"source":"CELESTRAK","updated_at":"2026-09-20T09:00:39.591168Z"}}}